DD3UTS-13 Weather Reports


time (UTC)temp
F
wind
direction
speed
knots
gust
knots
rain 1hr
in
rain 24hr
in
rain mn
in
humidity
%
barometer
mb
20260507172031 47 10 2.6 0.0 0.00 0.50 0.00 90 1013.8
20260507171531 47 350 2.6 0.0 0.00 0.50 0.00 90 1013.7
20260507171031 47 3 2.6 0.0 0.00 0.50 0.00 90 1013.6
20260507170531 47 3 3.5 0.0 0.00 0.48 0.00 90 1013.6
20260507170031 47 357 2.6 0.0 0.00 0.48 0.00 90 1013.6
20260507165531 47 5 3.5 0.0 0.00 0.48 0.00 90 1013.6
20260507165032 47 352 2.6 0.0 0.00 0.48 0.00 90 1013.6
20260507164532 47 355 1.7 0.0 0.00 0.48 0.00 90 1013.6
20260507164032 47 20 0.0 0.0 0.00 0.48 0.00 90 1013.5
20260507163531 47 0 0.0 0.0 0.00 0.48 0.00 90 1013.5
20260507163031 47 357 0.0 0.0 0.00 0.48 0.00 90 1013.4
20260507162531 47 10 2.6 0.0 0.00 0.48 0.00 90 1013.4
20260507162032 47 0 3.5 0.0 0.00 0.48 0.00 90 1013.4
20260507161531 47 12 2.6 0.0 0.00 0.48 0.00 90 1013.4
20260507161032 47 0 2.6 0.0 0.00 0.48 0.00 90 1013.4
20260507160532 47 350 2.6 0.0 0.00 0.48 0.00 90 1013.4
20260507160031 48 342 2.6 0.0 0.00 0.48 0.00 90 1013.4
20260507155532 48 3 2.6 0.0 0.00 0.48 0.00 89 1013.4
20260507155031 48 342 2.6 0.0 0.00 0.48 0.00 89 1013.2
20260507154531 48 322 3.5 0.0 0.00 0.48 0.00 89 1013.2
20260507154032 48 355 2.6 0.0 0.00 0.48 0.00 89 1013.1
20260507153532 48 3 3.5 0.0 0.00 0.48 0.00 89 1013.1
20260507153032 48 340 3.5 0.0 0.00 0.48 0.00 89 1013.1
20260507152531 48 357 2.6 0.0 0.00 0.48 0.00 89 1013.0
20260507152031 48 357 2.6 0.0 0.00 0.48 0.00 89 1012.9
20260507151532 48 345 2.6 0.0 0.00 0.48 0.00 89 1012.9
20260507151032 48 357 3.5 0.0 0.00 0.48 0.00 89 1012.9
20260507150531 48 355 3.5 0.0 0.00 0.48 0.00 89 1012.9
20260507150032 48 350 2.6 0.0 0.00 0.48 0.00 89 1012.8
20260507145532 48 345 3.5 0.0 0.00 0.48 0.00 89 1012.8
20260507145032 48 357 3.5 0.0 0.00 0.46 0.00 89 1012.8
20260507144532 48 8 3.5 0.0 0.00 0.46 0.00 89 1012.8
20260507144031 48 357 3.5 0.0 0.00 0.46 0.00 89 1012.7
20260507143532 49 10 2.6 0.0 0.00 0.46 0.00 89 1012.7
20260507143032 49 8 3.5 0.0 0.00 0.46 0.00 89 1012.6
20260507142532 49 10 2.6 0.0 0.00 0.45 0.00 89 1012.5
20260507142031 49 155 1.7 0.0 0.00 0.45 0.00 89 1012.5
20260507141532 49 5 3.5 0.0 0.00 0.45 0.00 89 1012.5
20260507141031 49 8 3.5 0.0 0.00 0.45 0.00 89 1012.5
20260507140531 49 310 3.5 0.0 0.00 0.45 0.00 89 1012.4
20260507140032 49 17 2.6 0.0 0.00 0.45 0.00 89 1012.4
20260507135531 49 22 4.3 0.0 0.00 0.44 0.00 89 1012.4
20260507135032 49 20 3.5 0.0 0.00 0.44 0.00 89 1012.3
20260507134532 49 5 3.5 0.0 0.00 0.44 0.00 89 1012.3
20260507134032 49 17 3.5 0.0 0.00 0.43 0.00 89 1012.2
20260507133531 49 3 2.6 0.0 0.00 0.42 0.00 89 1012.2
20260507133032 49 8 2.6 0.0 0.00 0.41 0.00 89 1012.2
20260507132533 49 10 4.3 0.0 0.00 0.41 0.00 89 1012.3
20260507132032 50 357 3.5 0.0 0.00 0.39 0.00 89 1012.3
20260507131531 50 340 2.6 0.0 0.00 0.39 0.00 89 1012.3
20260507131031 49 3 4.3 0.0 0.00 0.38 0.00 89 1012.2
20260507130532 49 345 3.5 0.0 0.00 0.37 0.00 88 1012.2
20260507130031 49 355 4.3 0.0 0.00 0.35 0.00 88 1012.2
20260507125531 50 345 3.5 0.0 0.00 0.33 0.00 88 1012.1
20260507125032 50 340 3.5 0.0 0.00 0.33 0.00 88 1012.0
20260507124532 51 3 3.5 0.0 0.00 0.32 0.00 88 1011.9
20260507124031 50 352 4.3 0.0 0.00 0.30 0.00 88 1011.8
20260507123531 51 8 3.5 0.0 0.00 0.30 0.00 89 1011.8
20260507123032 51 20 0.0 0.0 0.00 0.30 0.00 89 1011.7
20260507122532 51 20 0.0 0.0 0.00 0.29 0.00 88 1011.7
20260507122031 51 0 3.5 0.0 0.00 0.28 0.00 88 1011.6
20260507121531 51 10 2.6 0.0 0.00 0.28 0.00 89 1011.5
20260507121031 51 10 0.0 0.0 0.00 0.28 0.00 89 1011.5
20260507120531 51 10 0.0 0.0 0.00 0.28 0.00 89 1011.4
20260507120031 51 25 0.0 0.0 0.00 0.28 0.00 89 1011.4
20260507115531 51 5 0.0 0.0 0.00 0.28 0.00 89 1011.3
20260507115032 51 12 0.0 0.0 0.00 0.28 0.00 89 1011.3
20260507114532 51 32 2.6 0.0 0.00 0.26 0.00 89 1011.3
20260507114032 51 27 2.6 0.0 0.00 0.26 0.00 89 1011.2
20260507113531 51 12 1.7 0.0 0.00 0.26 0.00 89 1011.2
20260507113031 51 35 2.6 0.0 0.00 0.26 0.00 89 1011.1
20260507112534 51 152 2.6 0.0 0.00 0.26 0.00 89 1011.1
20260507112031 51 32 0.0 0.0 0.00 0.26 0.00 89 1011.1
20260507111532 50 27 2.6 0.0 0.00 0.26 0.00 89 1011.0
20260507111032 50 15 0.0 0.0 0.00 0.25 0.00 89 1011.0
20260507110531 50 25 1.7 0.0 0.00 0.25 0.00 89 1011.0
20260507110032 51 25 0.0 0.0 0.00 0.25 0.00 89 1011.0
20260507105531 51 0 0.0 0.0 0.00 0.24 0.00 89 1010.9
20260507105032 50 37 1.7 0.0 0.00 0.24 0.00 89 1010.8
20260507104531 50 20 0.0 0.0 0.00 0.23 0.00 89 1010.8
20260507104031 50 15 0.0 0.0 0.00 0.23 0.00 89 1010.8
20260507103532 50 30 2.6 0.0 0.00 0.23 0.00 89 1010.8
20260507103031 50 20 0.0 0.0 0.00 0.23 0.00 89 1010.8
20260507102531 50 3 0.0 0.0 0.00 0.23 0.00 89 1010.7
20260507102031 50 3 3.5 0.0 0.00 0.23 0.00 89 1010.6
20260507101532 50 17 3.5 0.0 0.00 0.23 0.00 89 1010.6
20260507101031 50 42 3.5 0.0 0.00 0.23 0.00 89 1010.7
20260507100532 51 20 2.6 0.0 0.00 0.23 0.00 89 1010.6
20260507100031 51 10 3.5 0.0 0.00 0.23 0.00 89 1010.4
20260507095531 51 5 3.5 0.0 0.00 0.23 0.00 89 1010.5
20260507095031 51 8 3.5 0.0 0.00 0.23 0.00 89 1010.5
20260507094532 51 0 3.5 0.0 0.00 0.23 0.00 89 1010.4
20260507094031 51 0 3.5 0.0 0.00 0.23 0.00 89 1010.4
20260507093532 51 3 2.6 0.0 0.00 0.23 0.00 89 1010.4
20260507093032 51 30 2.6 0.0 0.00 0.23 0.00 89 1010.4
20260507092531 51 17 0.0 0.0 0.00 0.23 0.00 89 1010.3
20260507092032 51 15 3.5 0.0 0.00 0.23 0.00 89 1010.2
20260507091532 50 10 0.0 0.0 0.00 0.23 0.00 90 1010.2
20260507091032 50 10 2.6 0.0 0.00 0.23 0.00 89 1010.2
20260507090531 50 17 3.5 0.0 0.00 0.23 0.00 89 1010.1
20260507090032 50 3 3.5 0.0 0.00 0.23 0.00 90 1010.1
20260507085531 50 5 2.6 0.0 0.00 0.22 0.00 89 1010.0
20260507085031 50 330 3.5 0.0 0.00 0.22 0.00 90 1010.0
20260507084531 50 357 2.6 0.0 0.00 0.22 0.00 90 1009.9
20260507084031 50 355 3.5 0.0 0.00 0.22 0.00 90 1009.8
20260507083532 49 10 3.5 0.0 0.00 0.22 0.00 90 1009.8
20260507083033 50 10 3.5 0.0 0.00 0.22 0.00 90 1009.7
20260507082532 49 342 3.5 0.0 0.00 0.22 0.00 90 1009.6
20260507082032 49 10 3.5 0.0 0.00 0.22 0.00 90 1009.6
20260507081532 49 8 3.5 0.0 0.00 0.21 0.00 90 1009.6
20260507081031 49 0 2.6 0.0 0.00 0.21 0.00 89 1009.5
20260507080531 49 17 3.5 0.0 0.00 0.21 0.00 90 1009.5
20260507080033 49 335 2.6 0.0 0.00 0.20 0.00 90 1009.5
20260507075531 49 340 2.6 0.0 0.00 0.19 0.00 90 1009.4
20260507075032 49 345 2.6 0.0 0.00 0.19 0.00 89 1009.3
20260507074531 49 0 3.5 0.0 0.00 0.19 0.00 90 1009.3
20260507074032 49 5 2.6 0.0 0.00 0.17 0.00 90 1009.2
20260507073531 49 20 2.6 0.0 0.00 0.17 0.00 90 1009.2
20260507073031 49 12 3.5 0.0 0.00 0.17 0.00 89 1009.2
20260507072532 49 12 0.0 0.0 0.00 0.17 0.00 89 1009.1
20260507072031 49 25 0.0 0.0 0.00 0.17 0.00 89 1009.1
20260507071531 49 350 2.6 0.0 0.00 0.17 0.00 89 1009.0
20260507071032 49 5 3.5 0.0 0.00 0.17 0.00 89 1008.9
20260507070532 50 357 1.7 0.0 0.00 0.16 0.00 89 1008.9
20260507070031 49 20 0.0 0.0 0.00 0.16 0.00 89 1008.9
20260507065532 49 355 0.0 0.0 0.00 0.16 0.00 89 1008.9
20260507065031 49 355 2.6 0.0 0.00 0.16 0.00 89 1008.9
20260507064532 50 357 2.6 0.0 0.00 0.16 0.00 89 1008.8
20260507064032 50 15 0.0 0.0 0.00 0.16 0.00 89 1008.7
20260507063532 50 352 0.0 0.0 0.00 0.15 0.00 89 1008.7
20260507063031 50 352 0.0 0.0 0.00 0.15 0.00 89 1008.6
20260507062531 49 8 2.6 0.0 0.00 0.15 0.00 89 1008.6
20260507062032 49 10 2.6 0.0 0.00 0.15 0.00 89 1008.5
20260507061531 50 0 0.0 0.0 0.00 0.15 0.00 89 1008.5
20260507061032 50 0 0.0 0.0 0.00 0.14 0.00 89 1008.4
20260507060532 50 12 0.0 0.0 0.00 0.13 0.00 89 1008.4
20260507060032 50 12 0.0 0.0 0.00 0.13 0.00 89 1008.4
20260507055532 50 12 0.0 0.0 0.00 0.11 0.00 89 1008.4
20260507055031 50 12 0.0 0.0 0.00 0.11 0.00 89 1008.3
20260507054531 50 12 0.0 0.0 0.00 0.10 0.00 89 1008.3
20260507054031 50 8 0.0 0.0 0.00 0.09 0.00 89 1008.2
20260507053531 50 5 0.0 0.0 0.00 0.09 0.00 89 1008.2
20260507053032 49 3 0.0 0.0 0.00 0.08 0.00 89 1008.1
20260507052532 49 3 0.0 0.0 0.00 0.07 0.00 89 1008.1
20260507052033 49 3 0.0 0.0 0.00 0.06 0.00 89 1008.0
20260507051532 49 3 0.0 0.0 0.00 0.04 0.00 89 1008.0
20260507051031 49 3 1.7 0.0 0.00 0.03 0.00 89 1007.9
20260507050531 49 10 0.0 0.0 0.00 0.02 0.00 89 1007.9
20260507050031 49 12 2.6 0.0 0.00 0.21 0.00 89 1007.9
20260507045531 49 17 0.0 0.0 0.00 0.21 0.00 89 1007.8
20260507045031 49 17 0.0 0.0 0.00 0.18 0.00 89 1007.8
20260507044532 49 17 0.0 0.0 0.00 0.18 0.00 89 1007.8
20260507044032 49 17 0.0 0.0 0.00 0.17 0.00 89 1007.6
20260507043531 50 25 2.6 0.0 0.00 0.15 0.00 89 1007.6
20260507043031 49 352 2.6 0.0 0.00 0.15 0.00 89 1007.6
20260507042531 50 17 0.0 0.0 0.00 0.15 0.00 89 1007.5
20260507042032 50 0 0.0 0.0 0.00 0.15 0.00 89 1007.5
20260507041531 50 357 3.5 0.0 0.00 0.15 0.00 89 1007.4
20260507041031 50 12 0.0 0.0 0.00 0.15 0.00 89 1007.3
20260507040531 50 355 0.0 0.0 0.00 0.15 0.00 89 1007.3
20260507040032 50 15 2.6 0.0 0.00 0.15 0.00 89 1007.3
20260507035531 50 12 2.6 0.0 0.00 0.15 0.00 89 1007.3
20260507035031 51 35 0.0 0.0 0.00 0.14 0.00 89 1007.2
20260507034532 51 0 3.5 0.0 0.00 0.14 0.00 89 1007.2
20260507034031 51 10 3.5 0.0 0.00 0.14 0.00 89 1007.2
20260507033532 51 352 2.6 0.0 0.00 0.14 0.00 89 1007.2
20260507033031 51 5 3.5 0.0 0.00 0.14 0.00 89 1007.2
20260507032532 51 347 0.0 0.0 0.00 0.14 0.00 89 1007.2
20260507032032 51 3 0.0 0.0 0.00 0.13 0.00 89 1007.1
20260507031531 51 8 0.0 0.0 0.00 0.13 0.00 89 1007.1
20260507031032 51 5 0.0 0.0 0.00 0.13 0.00 89 1007.1
20260507030532 51 8 0.0 0.0 0.00 0.12 0.00 89 1007.1
20260507030032 51 8 0.0 0.0 0.00 0.11 0.00 88 1007.1
20260507025531 51 8 0.0 0.0 0.00 0.11 0.00 88 1007.1
20260507025032 51 8 0.0 0.0 0.00 0.09 0.00 88 1007.1
20260507024532 51 355 0.0 0.0 0.00 0.09 0.00 88 1007.0
20260507024031 51 347 0.0 0.0 0.00 0.09 0.00 88 1007.0
20260507023531 51 315 2.6 0.0 0.00 0.09 0.00 88 1007.0
20260507023031 51 310 2.6 0.0 0.00 0.09 0.00 88 1007.1
20260507022532 51 307 3.5 0.0 0.00 0.09 0.00 88 1007.1
20260507022031 51 355 0.0 0.0 0.00 0.09 0.00 88 1007.1
20260507021531 51 342 0.0 0.0 0.00 0.09 0.00 88 1007.1
20260507021031 51 330 2.6 0.0 0.00 0.09 0.00 88 1007.0
20260507020532 51 292 2.6 0.0 0.00 0.09 0.00 88 1007.0
20260507020031 51 320 3.5 0.0 0.00 0.09 0.00 88 1007.0
20260507015532 51 320 0.0 0.0 0.00 0.09 0.00 88 1007.0
20260507015032 51 355 3.5 0.0 0.00 0.09 0.00 88 1006.9
20260507014531 51 320 0.0 0.0 0.00 0.09 0.00 88 1006.9
20260507014032 51 10 0.0 0.0 0.00 0.09 0.00 88 1006.9
20260507013531 51 17 0.0 0.0 0.00 0.09 0.00 88 1006.9
20260507013031 51 15 0.0 0.0 0.00 0.09 0.00 88 1006.8
20260507012531 51 10 2.6 0.0 0.00 0.09 0.00 88 1006.7
20260507012031 51 355 2.6 0.0 0.00 0.09 0.00 88 1006.6
20260507011532 51 57 3.5 0.0 0.00 0.09 0.00 88 1006.5
20260507011031 51 120 4.3 0.0 0.00 0.09 0.00 88 1006.4
20260507010532 51 130 4.3 0.0 0.00 0.09 0.00 88 1006.4
20260507010032 51 135 4.3 0.0 0.00 0.09 0.00 88 1006.3
20260507005531 51 137 4.3 0.0 0.00 0.09 0.00 87 1006.3
20260507005032 51 147 3.5 0.0 0.00 0.09 0.00 87 1006.3
20260507004532 51 195 3.5 0.0 0.00 0.09 0.00 87 1006.3
20260507004032 51 202 4.3 0.0 0.00 0.09 0.00 87 1006.3
20260507003531 51 140 3.5 0.0 0.00 0.09 0.00 87 1006.3
20260507003032 51 165 3.5 0.0 0.00 0.09 0.00 87 1006.3
20260507002532 51 145 3.5 0.0 0.00 0.09 0.00 87 1006.3
20260507002031 51 122 2.6 0.0 0.00 0.09 0.00 87 1006.2
20260507001532 51 110 0.0 0.0 0.00 0.09 0.00 87 1006.2
20260507001032 51 82 2.6 0.0 0.00 0.09 0.00 87 1006.3
20260507000532 51 100 0.0 0.0 0.00 0.09 0.00 87 1006.3
20260507000032 51 100 0.0 0.0 0.00 0.09 0.00 87 1006.3
20260506235532 51 50 0.0 0.0 0.00 0.09 0.00 87 1006.4
20260506235031 51 52 0.0 0.0 0.00 0.09 0.00 87 1006.4
20260506234531 51 15 0.0 0.0 0.00 0.09 0.00 87 1006.4
20260506234032 51 10 3.5 0.0 0.00 0.09 0.00 87 1006.3
20260506233531 51 20 0.0 0.0 0.00 0.08 0.00 86 1006.3
20260506233031 51 20 0.0 0.0 0.00 0.08 0.00 86 1006.2
20260506232531 52 20 0.0 0.0 0.00 0.08 0.00 86 1006.2
20260506232032 52 60 0.0 0.0 0.00 0.07 0.00 86 1006.2
20260506231532 52 3 0.0 0.0 0.00 0.07 0.00 86 1006.1
20260506231031 52 0 3.5 0.0 0.00 0.07 0.00 86 1006.1
20260506230531 52 0 3.5 0.0 0.00 0.06 0.00 86 1006.1
20260506230032 52 350 3.5 0.0 0.00 0.02 0.00 85 1006.2
20260506225532 52 22 3.5 0.0 0.00 0.01 0.00 85 1006.2
20260506225032 52 15 4.3 0.0 0.00 0.01 0.00 85 1006.3
20260506224532 52 310 3.5 0.0 0.00 0.01 0.00 85 1006.4
20260506224031 52 345 2.6 0.0 0.00 0.00 0.00 85 1006.3
20260506223531 52 10 3.5 0.0 0.00 0.00 0.00 85 1006.3
20260506223032 52 355 3.5 0.0 0.00 0.00 0.00 84 1006.4
20260506222531 52 305 5.2 0.0 0.00 0.00 0.00 84 1006.6
20260506222031 53 340 7.0 0.0 0.00 0.00 0.00 84 1006.6
20260506221532 53 300 18.2 0.0 0.00 0.00 0.00 83 1006.5
20260506221032 53 300 18.2 0.0 0.00 0.00 0.00 83 1006.5
20260506220532 54 302 7.0 0.0 0.00 0.00 0.00 83 1006.5
20260506220032 55 357 2.6 0.0 0.00 0.00 0.00 83 1006.2
20260506215532 55 0 2.6 0.0 0.00 0.00 0.00 83 1006.0
20260506215031 55 10 0.0 0.0 0.00 0.00 0.00 83 1005.9
20260506214532 55 357 0.0 0.0 0.00 0.00 0.00 83 1005.9
20260506214032 55 347 0.0 0.0 0.00 0.00 0.00 83 1005.9
20260506213532 55 347 0.0 0.0 0.00 0.00 0.00 83 1005.9
20260506213031 55 347 0.0 0.0 0.00 0.00 0.00 83 1005.9
20260506212531 55 347 1.7 0.0 0.00 0.00 0.00 83 1005.9
20260506212031 55 350 2.6 0.0 0.00 0.00 0.00 82 1005.8
20260506211531 55 22 0.0 0.0 0.00 0.00 0.00 82 1005.6
20260506211032 55 22 0.0 0.0 0.00 0.00 0.00 82 1005.6
20260506210531 55 22 0.0 0.0 0.00 0.00 0.00 82 1005.6
20260506210032 55 22 0.0 0.0 0.00 0.00 0.00 82 1005.7
20260506205532 55 22 0.0 0.0 0.00 0.00 0.00 82 1005.8
20260506205032 55 22 0.0 0.0 0.00 0.00 0.00 82 1005.7
20260506204531 55 10 0.0 0.0 0.00 0.00 0.00 82 1005.6
20260506204031 55 10 0.0 0.0 0.00 0.00 0.00 81 1005.5
20260506203531 55 20 0.0 0.0 0.00 0.00 0.00 81 1005.4
20260506203031 55 20 0.0 0.0 0.00 0.00 0.00 81 1005.5
20260506202532 55 10 2.6 0.0 0.00 0.00 0.00 81 1005.5
20260506202032 56 350 2.6 0.0 0.00 0.00 0.00 81 1005.5
20260506201532 56 0 0.0 0.0 0.00 0.00 0.00 80 1005.5
20260506201033 56 357 0.0 0.0 0.00 0.00 0.00 80 1005.5
20260506200531 56 357 0.0 0.0 0.00 0.00 0.00 80 1005.5
20260506200032 56 355 2.6 0.0 0.00 0.00 0.00 80 1005.5
20260506195532 56 355 0.0 0.0 0.00 0.00 0.00 79 1005.5
20260506195032 56 8 2.6 0.0 0.00 0.00 0.00 79 1005.6
20260506194532 57 355 1.7 0.0 0.00 0.00 0.00 79 1005.5
20260506194033 57 10 0.0 0.0 0.00 0.00 0.00 78 1005.4
20260506193532 57 10 0.0 0.0 0.00 0.00 0.00 78 1005.4
20260506193032 57 40 0.0 0.0 0.00 0.00 0.00 77 1005.4
20260506192532 57 40 0.0 0.0 0.00 0.00 0.00 77 1005.3
20260506192032 58 355 2.6 0.0 0.00 0.00 0.00 77 1005.2
20260506191532 58 50 2.6 0.0 0.00 0.00 0.00 76 1005.2
20260506191032 58 75 0.0 0.0 0.00 0.00 0.00 75 1005.1
20260506190532 58 15 0.0 0.0 0.00 0.00 0.00 75 1005.0
20260506190032 58 15 0.0 0.0 0.00 0.00 0.00 75 1004.9
20260506185532 58 27 0.0 0.0 0.00 0.00 0.00 74 1004.8
20260506185032 58 37 0.0 0.0 0.00 0.00 0.00 74 1004.8
20260506184532 59 105 0.0 0.0 0.00 0.00 0.00 73 1004.8
20260506184031 59 100 0.0 0.0 0.00 0.00 0.00 72 1004.8
20260506183532 59 45 0.0 0.0 0.00 0.00 0.00 71 1004.8
20260506183032 59 45 0.0 0.0 0.00 0.00 0.00 71 1004.8
20260506182531 60 3 3.5 0.0 0.00 0.00 0.00 70 1004.7
20260506182032 61 35 1.7 0.0 0.00 0.00 0.00 69 1004.7
20260506181531 61 62 2.6 0.0 0.00 0.00 0.00 68 1004.7
20260506181032 62 342 3.5 0.0 0.00 0.00 0.00 67 1004.6
20260506180532 62 332 3.5 0.0 0.00 0.00 0.00 66 1004.5
20260506180031 63 350 0.0 0.0 0.00 0.00 0.00 64 1004.5
20260506175531 63 8 0.0 0.0 0.00 0.00 0.00 63 1004.5
20260506175033 65 350 0.0 0.0 0.00 0.00 0.00 61 1004.6
20260506174532 65 357 0.0 0.0 0.00 0.00 0.00 60 1004.6
20260506174031 65 10 0.0 0.0 0.00 0.00 0.00 59 1004.6
20260506173532 66 22 0.0 0.0 0.00 0.00 0.00 59 1004.5
20260506173031 66 22 0.0 0.0 0.00 0.00 0.00 58 1004.5
20260506172532 66 25 0.0 0.0 0.00 0.00 0.00 58 1004.5